ANA1621 RJOT-ROAH

Flight info

Callsign ANA1621
Flight time N/A
Altitude 36000
Route WASYU Y28 MARCO Y45 ONC Y525 IHEYA
Aircraft A321/M-SDE3FGHIRWY/LB1

Departure

Time N/A
Airport Takamatsu Airport (RJOT)

Arrival

Time 2026-04-25 06:01
Airport Naha International Airport (ROAH)
Time Latitude Longitude Altitude Speed Heading
2026-04-25 04:30 33.31352 131.75110 36180 ft 342 kts 212°
2026-04-25 04:31 33.26988 131.72867 36136 ft 342 kts 212°
2026-04-25 04:31 33.22621 131.70615 36142 ft 341 kts 214°
2026-04-25 04:32 33.19276 131.68262 36155 ft 335 kts 219°
2026-04-25 04:32 33.15316 131.65325 36147 ft 335 kts 219°
2026-04-25 04:33 33.11355 131.62385 36154 ft 335 kts 219°
2026-04-25 04:33 33.07389 131.59442 36149 ft 336 kts 219°
2026-04-25 04:34 33.03420 131.56508 36153 ft 335 kts 219°
2026-04-25 04:34 32.99461 131.53572 36168 ft 335 kts 219°
2026-04-25 04:35 32.95502 131.50637 36138 ft 335 kts 219°
2026-04-25 04:35 32.91537 131.47718 36144 ft 335 kts 219°
2026-04-25 04:36 32.87569 131.44797 36142 ft 335 kts 219°
2026-04-25 04:36 32.83631 131.41892 36139 ft 336 kts 219°
2026-04-25 04:37 32.79675 131.38968 36114 ft 336 kts 219°
2026-04-25 04:37 32.75722 131.36001 36129 ft 337 kts 219°
2026-04-25 04:38 32.71748 131.33021 36162 ft 337 kts 219°
2026-04-25 04:38 32.67783 131.30057 36160 ft 336 kts 219°
2026-04-25 04:39 32.63847 131.27120 36112 ft 332 kts 218°
2026-04-25 04:39 32.59925 131.24193 36115 ft 335 kts 219°
2026-04-25 04:40 32.55970 131.21244 36124 ft 334 kts 219°
2026-04-25 04:40 32.52006 131.18290 36131 ft 337 kts 218°
2026-04-25 04:41 32.48040 131.15348 36086 ft 336 kts 218°
2026-04-25 04:41 32.44071 131.12410 36136 ft 337 kts 219°
2026-04-25 04:42 32.40096 131.09468 36141 ft 337 kts 219°
2026-04-25 04:42 32.36100 131.06563 36140 ft 337 kts 218°
2026-04-25 04:43 32.32121 131.03695 36103 ft 337 kts 218°
2026-04-25 04:43 32.28127 131.00811 36124 ft 336 kts 218°
2026-04-25 04:44 32.24134 130.97927 36119 ft 337 kts 218°
2026-04-25 04:44 32.20140 130.95043 36124 ft 337 kts 219°
2026-04-25 04:45 32.16140 130.92161 36099 ft 336 kts 218°
2026-04-25 04:45 32.12152 130.89293 36154 ft 335 kts 218°
2026-04-25 04:46 32.08203 130.86405 36149 ft 333 kts 219°
2026-04-25 04:46 32.04278 130.83505 36141 ft 333 kts 219°
2026-04-25 04:47 32.00352 130.80621 36102 ft 332 kts 218°
2026-04-25 04:47 31.96425 130.77748 36104 ft 332 kts 218°
2026-04-25 04:48 31.92494 130.74876 36113 ft 333 kts 218°
2026-04-25 04:48 31.88563 130.72006 36112 ft 332 kts 218°
2026-04-25 04:49 31.84632 130.69144 36081 ft 332 kts 218°
2026-04-25 04:49 31.80703 130.66288 36091 ft 332 kts 218°
2026-04-25 04:50 31.76773 130.63426 36102 ft 332 kts 218°
2026-04-25 04:50 31.72845 130.60568 36105 ft 332 kts 218°
2026-04-25 04:51 31.68837 130.57887 36070 ft 340 kts 210°
2026-04-25 04:51 31.64423 130.55875 36073 ft 341 kts 210°
2026-04-25 04:52 31.59986 130.53868 36071 ft 343 kts 210°
2026-04-25 04:52 31.55522 130.51880 36076 ft 344 kts 210°
2026-04-25 04:53 31.51039 130.49914 36081 ft 344 kts 210°
2026-04-25 04:53 31.46554 130.47953 36071 ft 343 kts 210°
2026-04-25 04:54 31.42095 130.45997 36089 ft 340 kts 210°
2026-04-25 04:54 31.37675 130.44059 36092 ft 340 kts 210°
2026-04-25 04:55 31.33236 130.42106 36067 ft 342 kts 210°
2026-04-25 04:55 31.28772 130.40156 36087 ft 343 kts 210°
2026-04-25 04:56 31.24353 130.38181 36084 ft 342 kts 211°
2026-04-25 04:56 31.19952 130.36093 36084 ft 341 kts 211°
2026-04-25 04:57 31.15552 130.33993 36047 ft 342 kts 211°
2026-04-25 04:57 31.11140 130.31909 36053 ft 343 kts 211°
2026-04-25 04:58 31.06705 130.29828 36059 ft 344 kts 211°
2026-04-25 04:58 31.02261 130.27751 36064 ft 345 kts 211°
2026-04-25 04:59 30.97805 130.25673 36035 ft 345 kts 210°
2026-04-25 04:59 30.93342 130.23601 36076 ft 345 kts 210°
2026-04-25 05:00 30.88881 130.21524 36083 ft 345 kts 210°
2026-04-25 05:00 30.84422 130.19449 36082 ft 345 kts 210°
2026-04-25 05:01 30.79989 130.17392 36085 ft 345 kts 210°
2026-04-25 05:01 30.75529 130.15325 36041 ft 346 kts 210°
2026-04-25 05:02 30.71054 130.13249 36049 ft 346 kts 210°
2026-04-25 05:02 30.66575 130.11169 36057 ft 347 kts 210°
2026-04-25 05:03 30.62087 130.09092 36067 ft 347 kts 210°
2026-04-25 05:03 30.57600 130.07014 36051 ft 347 kts 210°
2026-04-25 05:04 30.53099 130.04963 36055 ft 348 kts 210°
2026-04-25 05:04 30.48593 130.02937 36085 ft 347 kts 210°
2026-04-25 05:05 30.44086 130.00914 36075 ft 348 kts 210°
2026-04-25 05:05 30.39602 129.98905 36029 ft 348 kts 209°
2026-04-25 05:06 30.35087 129.96875 36037 ft 349 kts 209°
2026-04-25 05:06 30.30523 129.94898 36047 ft 351 kts 208°
2026-04-25 05:07 30.25918 129.93009 36058 ft 351 kts 208°
2026-04-25 05:07 30.21312 129.91122 36031 ft 351 kts 208°
2026-04-25 05:08 30.16706 129.89217 36043 ft 351 kts 208°
2026-04-25 05:08 30.12109 129.87311 36048 ft 351 kts 208°
2026-04-25 05:09 30.07516 129.85408 36054 ft 351 kts 208°
2026-04-25 05:09 30.02920 129.83505 36015 ft 351 kts 208°
2026-04-25 05:10 29.98359 129.81585 36025 ft 351 kts 209°
2026-04-25 05:10 29.93838 129.79499 36073 ft 350 kts 210°
2026-04-25 05:11 29.89338 129.77374 36063 ft 349 kts 210°
2026-04-25 05:11 29.84836 129.75272 36024 ft 349 kts 209°
2026-04-25 05:12 29.78063 129.72158 36032 ft 350 kts 209°
2026-04-25 05:12 29.73542 129.70086 36029 ft 350 kts 209°
2026-04-25 05:13 29.69012 129.68011 36034 ft 351 kts 209°
2026-04-25 05:13 29.64476 129.65934 36045 ft 351 kts 209°
2026-04-25 05:14 29.59943 129.63853 36039 ft 351 kts 209°
2026-04-25 05:15 29.53139 129.60740 36040 ft 351 kts 209°
2026-04-25 05:15 29.48603 129.58670 36046 ft 351 kts 209°
2026-04-25 05:16 29.44062 129.56597 36037 ft 351 kts 209°
2026-04-25 05:16 29.39551 129.54533 36040 ft 352 kts 209°
2026-04-25 05:17 29.34999 129.52460 36049 ft 352 kts 209°
2026-04-25 05:17 29.30407 129.50453 36052 ft 354 kts 208°
2026-04-25 05:18 29.25757 129.48582 36024 ft 355 kts 207°
2026-04-25 05:18 29.21093 129.46716 36029 ft 356 kts 207°
2026-04-25 05:19 29.16423 129.44830 36037 ft 356 kts 207°
2026-04-25 05:19 29.11754 129.42933 36040 ft 356 kts 207°
2026-04-25 05:20 29.07086 129.41035 36003 ft 356 kts 208°
2026-04-25 05:20 29.02407 129.39140 36015 ft 357 kts 208°
2026-04-25 05:21 28.97724 129.37229 36024 ft 357 kts 208°
2026-04-25 05:21 28.93088 129.35212 36034 ft 356 kts 209°
2026-04-25 05:22 28.88474 129.33142 36037 ft 356 kts 209°
2026-04-25 05:22 28.83857 129.31095 36038 ft 356 kts 209°
2026-04-25 05:23 28.79223 129.29064 36045 ft 357 kts 209°
2026-04-25 05:23 28.74615 129.27048 36044 ft 357 kts 209°
2026-04-25 05:24 28.69979 129.25019 36048 ft 357 kts 209°
2026-04-25 05:24 28.65336 129.22992 36014 ft 357 kts 209°
2026-04-25 05:25 28.60688 129.20965 36022 ft 358 kts 209°
2026-04-25 05:25 28.56044 129.18940 36028 ft 358 kts 209°
2026-04-25 05:26 28.51391 129.16915 36031 ft 358 kts 209°
2026-04-25 05:26 28.46736 129.14890 36006 ft 358 kts 208°
2026-04-25 05:27 28.42077 129.12862 36027 ft 359 kts 208°
2026-04-25 05:27 28.38198 129.11177 36053 ft 359 kts 209°
2026-04-25 05:28 28.33524 129.09150 36057 ft 359 kts 208°
2026-04-25 05:28 28.28851 129.07126 36028 ft 359 kts 208°
2026-04-25 05:29 28.23419 129.04782 36036 ft 359 kts 208°
2026-04-25 05:29 28.19506 129.03089 36041 ft 360 kts 208°
2026-04-25 05:30 28.14830 129.01062 36047 ft 359 kts 208°
2026-04-25 05:30 28.10192 128.98958 36053 ft 359 kts 209°
2026-04-25 05:31 28.05599 128.96835 36032 ft 359 kts 209°
2026-04-25 05:31 28.00962 128.94706 36041 ft 360 kts 209°
2026-04-25 05:32 27.96322 128.92592 36050 ft 360 kts 209°
2026-04-25 05:32 27.91685 128.90477 36051 ft 359 kts 209°
2026-04-25 05:33 27.87031 128.88405 36035 ft 360 kts 208°
2026-04-25 05:33 27.82338 128.86420 36037 ft 360 kts 207°
2026-04-25 05:34 27.77638 128.84446 36032 ft 361 kts 207°
2026-04-25 05:34 27.72938 128.82459 36033 ft 361 kts 208°
2026-04-25 05:35 27.68243 128.80463 36035 ft 361 kts 208°
2026-04-25 05:35 27.63548 128.78468 36031 ft 361 kts 208°
2026-04-25 05:36 27.58839 128.76474 36030 ft 361 kts 207°
2026-04-25 05:36 27.54140 128.74486 36031 ft 361 kts 207°
2026-04-25 05:37 27.49440 128.72499 36036 ft 361 kts 207°
2026-04-25 05:37 27.44880 128.70241 36004 ft 353 kts 218°
2026-04-25 05:38 27.41474 128.66406 36035 ft 348 kts 237°
2026-04-25 05:38 27.39032 128.61747 36052 ft 348 kts 238°
2026-04-25 05:39 27.36558 128.57056 36053 ft 348 kts 238°
2026-04-25 05:39 27.34076 128.52369 36058 ft 349 kts 238°
2026-04-25 05:40 27.31597 128.47686 36020 ft 349 kts 238°
2026-04-25 05:40 27.29118 128.42992 36015 ft 349 kts 238°
2026-04-25 05:41 27.26639 128.38282 36018 ft 351 kts 238°
2026-04-25 05:41 27.24138 128.33547 35676 ft 355 kts 238°
2026-04-25 05:41 27.22852 128.31121 34495 ft 366 kts 237°
2026-04-25 05:42 27.21529 128.28630 33116 ft 377 kts 238°
2026-04-25 05:42 27.20170 128.26066 31936 ft 385 kts 238°
2026-04-25 05:42 27.18818 128.23511 31676 ft 374 kts 239°
2026-04-25 05:42 27.17499 128.21021 31242 ft 367 kts 239°
2026-04-25 05:43 27.16202 128.18575 30780 ft 362 kts 239°
2026-04-25 05:43 27.14917 128.16162 30299 ft 358 kts 239°
2026-04-25 05:43 27.13644 128.13775 29797 ft 354 kts 239°
2026-04-25 05:43 27.12407 128.11454 29318 ft 349 kts 239°
2026-04-25 05:44 27.11167 128.09130 28725 ft 346 kts 240°
2026-04-25 05:44 27.09935 128.06820 28172 ft 343 kts 240°
2026-04-25 05:44 27.08715 128.04529 27625 ft 341 kts 240°
2026-04-25 05:44 27.07504 128.02252 27078 ft 338 kts 240°
2026-04-25 05:45 27.06303 127.99996 26548 ft 336 kts 240°
2026-04-25 05:45 27.05114 127.97761 26032 ft 333 kts 240°
2026-04-25 05:45 27.03932 127.95541 25519 ft 330 kts 240°
2026-04-25 05:45 27.02612 127.93443 25027 ft 330 kts 230°
2026-04-25 05:46 27.00843 127.91797 24525 ft 334 kts 217°
2026-04-25 05:46 26.98700 127.90743 24051 ft 343 kts 202°
2026-04-25 05:46 26.96296 127.90394 23554 ft 356 kts 188°
2026-04-25 05:46 26.93825 127.90471 23008 ft 355 kts 187°
2026-04-25 05:47 26.91370 127.90557 22512 ft 351 kts 187°
2026-04-25 05:47 26.88940 127.90639 22007 ft 348 kts 187°
2026-04-25 05:47 26.86524 127.90717 21528 ft 346 kts 187°
2026-04-25 05:47 26.84120 127.90790 21025 ft 344 kts 187°
2026-04-25 05:48 26.81732 127.90860 20537 ft 343 kts 187°
2026-04-25 05:48 26.79349 127.90926 20034 ft 342 kts 187°
2026-04-25 05:48 26.76968 127.90991 19526 ft 342 kts 187°
2026-04-25 05:48 26.74587 127.91058 19016 ft 342 kts 186°
2026-04-25 05:49 26.72242 127.91123 18513 ft 342 kts 186°
2026-04-25 05:49 26.69831 127.91194 17938 ft 342 kts 186°
2026-04-25 05:49 26.67482 127.91266 17420 ft 342 kts 186°
2026-04-25 05:49 26.65103 127.91338 16921 ft 343 kts 185°
2026-04-25 05:50 26.62711 127.91407 16419 ft 346 kts 185°
2026-04-25 05:50 26.60293 127.91480 15905 ft 346 kts 185°
2026-04-25 05:50 26.57888 127.91556 15412 ft 346 kts 185°
2026-04-25 05:50 26.55481 127.91629 14915 ft 346 kts 184°
2026-04-25 05:51 26.53088 127.91701 14405 ft 346 kts 185°
2026-04-25 05:51 26.50799 127.91768 13925 ft 347 kts 185°
2026-04-25 05:51 26.48386 127.91837 13380 ft 347 kts 185°
2026-04-25 05:51 26.45974 127.91904 12853 ft 346 kts 185°
2026-04-25 05:52 26.43573 127.91970 12442 ft 343 kts 184°
2026-04-25 05:52 26.41188 127.92035 11896 ft 341 kts 186°
2026-04-25 05:52 26.38874 127.91728 11351 ft 331 kts 199°
2026-04-25 05:52 26.36755 127.90828 10876 ft 323 kts 209°
2026-04-25 05:53 26.34731 127.89775 10429 ft 319 kts 209°
2026-04-25 05:53 26.32753 127.88760 10286 ft 306 kts 208°
2026-04-25 05:53 26.30860 127.87796 10152 ft 293 kts 208°
2026-04-25 05:53 26.29036 127.86869 10069 ft 282 kts 208°
2026-04-25 05:54 26.27288 127.85981 9802 ft 272 kts 209°
2026-04-25 05:54 26.25568 127.85105 9312 ft 271 kts 209°
2026-04-25 05:54 26.22172 127.83374 8522 ft 267 kts 208°
2026-04-25 05:55 26.20500 127.82524 8149 ft 257 kts 208°
2026-04-25 05:55 26.18936 127.81734 8016 ft 237 kts 208°
2026-04-25 05:55 26.17460 127.80985 7544 ft 234 kts 208°
2026-04-25 05:55 26.15969 127.80220 6929 ft 237 kts 208°
2026-04-25 05:56 26.14470 127.79451 6401 ft 236 kts 207°
2026-04-25 05:56 26.12977 127.78687 5860 ft 236 kts 207°
2026-04-25 05:56 26.11487 127.77926 5278 ft 236 kts 207°
2026-04-25 05:56 26.10019 127.77120 4710 ft 235 kts 217°
2026-04-25 05:57 26.08918 127.75808 4163 ft 231 kts 242°
2026-04-25 05:57 26.08468 127.74116 3486 ft 230 kts 268°
2026-04-25 05:57 26.08764 127.72389 2837 ft 229 kts 293°
2026-04-25 05:57 26.09432 127.70778 2177 ft 232 kts 296°
2026-04-25 05:58 26.10106 127.69164 1859 ft 224 kts 296°
2026-04-25 05:58 26.10728 127.67669 1710 ft 202 kts 296°
2026-04-25 05:58 26.11286 127.66324 1554 ft 177 kts 297°
2026-04-25 05:58 26.11965 127.65345 1278 ft 154 kts 330°
2026-04-25 05:59 26.12956 127.65105 1067 ft 143 kts 357°
2026-04-25 05:59 26.13926 127.65031 876 ft 137 kts 355°
2026-04-25 05:59 26.14869 127.64901 731 ft 137 kts 349°
2026-04-25 05:59 26.15812 127.64760 563 ft 137 kts 355°
2026-04-25 06:00 26.16753 127.64719 368 ft 135 kts 359°
2026-04-25 06:00 26.17686 127.64681 195 ft 135 kts 357°
2026-04-25 06:00 26.18619 127.64638 33 ft 130 kts 358°
2026-04-25 06:00 26.19398 127.64597 17 ft 79 kts 357°
2026-04-25 06:01 26.19702 127.64598 16 ft 30 kts
2026-04-25 06:01 26.19884 127.64682 15 ft 28 kts 28°
2026-04-25 06:01 26.20053 127.64766 17 ft 26 kts
2026-04-25 06:01 26.20227 127.64762 17 ft 24 kts 357°
2026-04-25 06:02 26.20393 127.64756 18 ft 23 kts 358°
2026-04-25 06:02 26.20477 127.64755 18 ft 4 kts 16°
2026-04-25 06:02 26.20487 127.64773 19 ft 1 kts 70°
2026-04-25 06:02 26.20491 127.64816 20 ft 11 kts 86°
2026-04-25 06:03 26.20493 127.64842 23 ft 0 kts 87°